[[{"header":{"parameterUnit":"m.s-1","parameterCategory":1,"la1":30.2991,"la2":30.254,"lo1":-89.0895,"lo2":-89.0444,"dy":0.0017,"dx":0.0017,"nx":28,"ny":28,"refTime":"2026-01-05T09:00:00:Z","depth":0,"parameterNumber":2,"parameterNumberName":"U-component_of_WINDS"},"data":[0,0,0,0,0,0,0,0,0,0,0,0,0,0,0,0,0,0,0,0,0,0,0,0,0,0,0,0,0,0,0,0,0,0,0,0,0,0,0,0,0,0,0,0,0,0,0,0,0,0,0,0,0,0,0,0,0,0,0.8812,0.8814,0,0.8941,0.8942,0.8944,0.9004,0.9004,0.9004,0.9004,0.9138,0.9142,0.9145,0,0,0,0,0,0,0,0,0,0,0,0,0,0.8621,0.8625,0.8812,0.8814,0.8815,0.894,0.8942,0.8944,0.9004,0.9004,0.9004,0.9004,0.9137,0.9141,0.9146,0,0,0,0,0,0,0,0,0,0,0,0,0,0.8722,0.8626,0.8812,0.886,0.8866,0.894,0.8942,0.8945,0.9004,0.9004,0.9004,0.9004,0.9135,0.9141,0.9146,0.9183,0,0,0.9163,0.9165,0,0,0,0,0,0,0,0,0.8717,0.8729,0.8852,0.8857,0.8863,0.8956,0.8924,0.9024,0.9004,0.8952,0.9004,0.9004,0.9078,0.9088,0.9113,0.9189,0.9195,0.9163,0.9167,0.9169,0.9171,0,0,0,0,0,0,0,0.871,0.8724,0.8863,0.8853,0.8861,0.8877,0.8891,0.8944,0.9014,0.8956,0.8961,0.8975,0.9081,0.9107,0.9116,0.9197,0.9163,0.9168,0.9171,0.9174,0.9311,0.9311,0,0,0,0,0,0,0.8694,0.8718,0.8859,0.8867,0.8788,0.888,0.8896,0.8927,0.9014,0.9027,0.8975,0.8978,0.9098,0.911,0.9121,0.917,0.9169,0.9174,0.9177,0.931,0.9311,0.9311,0,0,0,0,0,0,0.869,0.8706,0.8854,0.8794,0.8814,0.8883,0.8917,0.8929,0.8955,0.9028,0.9041,0.8989,0.9098,0.9113,0.9167,0.9176,0.9177,0.9182,0.931,0.931,0.9311,0.9268,0,0,0,0,0,0,0.8684,0.8704,0.8718,0.8794,0.8817,0.8896,0.8918,0.8932,0.8964,0.8969,0.9044,0.9056,0.9099,0.9158,0.9172,0.9183,0.9186,0.9309,0.931,0.9311,0.9269,0.9267,0.9265,0,0,0,0,0,0.8677,0.8701,0.8719,0.8735,0.8835,0.8897,0.891,0.8958,0.8965,0.898,0.9027,0.9054,0.9172,0.9163,0.918,0.9192,0.9309,0.931,0.9311,0.927,0.9267,0.9265,0,0,0,0,0,0,0.8626,0.8712,0.8732,0.8781,0.8831,0.8907,0.8927,0.8954,0.9004,0.9006,0.9064,0.9081,0.9129,0.9166,0.9155,0.9233,0.9243,0.9247,0.9207,0.9205,0.9203,0.9193,0.919,0,0,0,0,0,0.862,0.8662,0.8735,0.8772,0.8796,0.8857,0.8885,0.8918,0.8973,0.8994,0.9045,0.9097,0.9147,0.9178,0.9227,0.9274,0.9292,0.9291,0.9289,0.9287,0.929,0.9319,0.932,0.9314,0.9314,0.9314,0,0,0.8609,0.8661,0.8684,0.8763,0.8805,0.8848,0.8874,0.8919,0.8951,0.9001,0.9055,0.9094,0.9157,0.9207,0.9232,0.9239,0.9296,0.9288,0.9286,0.9291,0.932,0.9321,0.9321,0.9314,0.9314,0.9314,0,0,0.8611,0.8654,0.8689,0.8731,0.8795,0.8836,0.8844,0.8916,0.8944,0.8998,0.9037,0.9077,0.916,0.9203,0.9236,0.9255,0.9282,0.9269,0.926,0.9287,0.9287,0.9288,0.9295,0.9297,0.9272,0.9272,0.9272,0,0.8589,0.8654,0.8704,0.8746,0.878,0.8827,0.8863,0.8902,0.8979,0.9002,0.9008,0.9114,0.916,0.9221,0.9226,0.9251,0.9263,0.9261,0.9283,0.9284,0.9286,0.9293,0.9296,0.927,0.927,0.927,0.927,0,0.8625,0.867,0.8691,0.8763,0.8799,0.8838,0.8895,0.8926,0.8955,0.8996,0.9051,0.9107,0.9169,0.9186,0.9216,0.9252,0.9255,0.9272,0.9284,0.9284,0.9292,0.9295,0.9267,0.9268,0.9268,0.9269,0,0,0.8598,0.8697,0.8704,0.8738,0.8812,0.8848,0.8889,0.8949,0.8975,0.9026,0.9063,0.9133,0.9149,0.9186,0.9221,0.9245,0.9257,0.9259,0.9262,0.9257,0.9302,0.9289,0.9291,0.9275,0.9276,0.9277,0.9297,0,0.861,0.8686,0.8732,0.879,0.8832,0.8877,0.8914,0.8964,0.9002,0.9045,0.9089,0.9137,0.9154,0.9177,0.9203,0.925,0.9267,0.9249,0.9312,0.9313,0.9295,0.9296,0.9282,0.9298,0.93,0.9301,0.9301,0,0.8635,0.8684,0.8746,0.8815,0.8835,0.8867,0.8925,0.8965,0.9023,0.905,0.9091,0.9126,0.9174,0.9181,0.9248,0.9234,0.9263,0.929,0.9292,0.93,0.9307,0.9304,0.9305,0.9307,0.9307,0.9306,0.9306,0,0.861,0.8692,0.8739,0.8767,0.8849,0.887,0.8906,0.8964,0.8996,0.9048,0.907,0.9127,0.9158,0.9202,0.9252,0.9253,0.9313,0.9325,0.9338,0.9336,0.9349,0.9347,0.9354,0.9366,0.9366,0.9366,0.9366,0,0.8619,0.8655,0.8729,0.8758,0.88,0.8854,0.8894,0.8934,0.8984,0.9023,0.9066,0.9101,0.9165,0.9209,0.9248,0.9298,0.9311,0.9335,0.9345,0.9331,0.9328,0.9351,0.9352,0.9367,0.9366,0.9366,0.9366,0,0.8598,0.8649,0.8704,0.8777,0.8796,0.8824,0.8887,0.8918,0.8959,0.9007,0.9022,0.9087,0.914,0.9194,0.9267,0.9294,0.9342,0.9356,0.9322,0.9328,0.9338,0.9337,0.936,0.9366,0.9373,0.9373,0.9373,0,0.86,0.8629,0.8705,0.8733,0.8767,0.8813,0.8846,0.89,0.8934,0.9002,0.9025,0.9082,0.913,0.9214,0.9268,0.9324,0.934,0.9344,0.9349,0.9334,0.9341,0.9339,0.9342,0.9342,0.9342,0.9342,0.9342,0,0.86,0.8624,0.867,0.8725,0.8764,0.8811,0.8859,0.888,0.8944,0.8979,0.9034,0.9072,0.9146,0.9202,0.9264,0.9302,0.9333,0.934,0.9346,0.9332,0.9312,0.9324,0.9318,0.9339,0.9339,0.934,0.934,0.934,0.8591,0.8619,0.8677,0.8727,0.8769,0.8813,0.8845,0.889,0.8937,0.9,0.903,0.9085,0.9144,0.9231,0.9268,0.9313,0.9321,0.933,0.9332,0.9333,0.933,0.9304,0.9325,0.9325,0.9325,0.9325,0.9325,0,0.8593,0.8633,0.8678,0.8744,0.8784,0.8808,0.8863,0.8895,0.8943,0.8994,0.9041,0.9104,0.9159,0.9218,0.9276,0.9301,0.9317,0.9315,0.9314,0.9322,0.9319,0.9309,0.9301,0.9301,0.9301,0.9301,0.9301,0.9301,0.8599,0.8647,0.8678,0.8748,0.8788,0.8841,0.8871,0.8912,0.8953,0.9022,0.9067,0.9105,0.9159,0.9222,0.9274,0.929,0.931,0.9304,0.9324,0.932,0.9322,0.9324,0.9314,0.9308,0.9308,0.9323,0.9323,0.9323]},{"header":{"parameterUnit":"m.s-1","parameterCategory":1,"la1":30.2991,"la2":30.254,"lo1":-89.0895,"lo2":-89.0444,"dy":0.0017,"dx":0.0017,"nx":28,"ny":28,"refTime":"2026-01-05T09:00:00:Z","depth":0,"parameterNumber":3,"parameterNumberName":"V-component_of_WINDS"},"data":[0,0,0,0,0,0,0,0,0,0,0,0,0,0,0,0,0,0,0,0,0,0,0,0,0,0,0,0,0,0,0,0,0,0,0,0,0,0,0,0,0,0,0,0,0,0,0,0,0,0,0,0,0,0,0,0,0,0,2.0385,2.0385,0,2.0358,2.0358,2.0358,2.0343,2.0343,2.0343,2.0343,2.0312,2.0311,2.0311,0,0,0,0,0,0,0,0,0,0,0,0,0,2.0422,2.0421,2.0385,2.0385,2.0384,2.0358,2.0358,2.0358,2.0343,2.0343,2.0343,2.0343,2.0312,2.0311,2.031,0,0,0,0,0,0,0,0,0,0,0,0,0,2.0401,2.0421,2.0385,2.0374,2.0373,2.0358,2.0358,2.0357,2.0343,2.0343,2.0343,2.0343,2.0313,2.0312,2.031,2.0304,0,0,2.0307,2.0306,0,0,0,0,0,0,0,0,2.0402,2.04,2.0376,2.0375,2.0373,2.0354,2.036,2.0339,2.0343,2.0354,2.0343,2.0343,2.0326,2.0324,2.0319,2.0303,2.0301,2.0307,2.0306,2.0305,2.0305,0,0,0,0,0,0,0,2.0404,2.0401,2.0374,2.0376,2.0374,2.037,2.0367,2.0356,2.034,2.0353,2.0352,2.0349,2.0325,2.032,2.0318,2.0301,2.0307,2.0306,2.0305,2.0304,2.028,2.028,0,0,0,0,0,0,2.0407,2.0402,2.0375,2.0374,2.0388,2.0369,2.0366,2.036,2.0341,2.0338,2.0349,2.0349,2.0322,2.0319,2.0317,2.0309,2.0305,2.0304,2.0304,2.0279,2.028,2.028,0,0,0,0,0,0,2.0408,2.0405,2.0376,2.0388,2.0384,2.0369,2.0362,2.036,2.0354,2.0338,2.0335,2.0347,2.0322,2.0318,2.0308,2.0307,2.0304,2.0303,2.0279,2.0279,2.028,2.0293,0,0,0,0,0,0,2.0409,2.0406,2.0403,2.0388,2.0383,2.0369,2.0362,2.0359,2.0353,2.0352,2.0335,2.0332,2.0321,2.031,2.0307,2.0306,2.0302,2.0279,2.0279,2.028,2.0292,2.0293,2.0294,0,0,0,0,0,2.0411,2.0407,2.0403,2.04,2.038,2.0369,2.0366,2.0355,2.0353,2.035,2.034,2.0332,2.0308,2.0309,2.0305,2.0304,2.0279,2.0279,2.028,2.0292,2.0293,2.0294,0,0,0,0,0,0,2.0422,2.0405,2.04,2.0392,2.0382,2.0366,2.0363,2.0356,2.0346,2.0345,2.0331,2.0328,2.0319,2.031,2.0311,2.0297,2.0293,2.0292,2.0303,2.0304,2.0305,2.0308,2.0301,0,0,0,0,0,2.0424,2.0416,2.0401,2.0395,2.0391,2.0378,2.0372,2.0365,2.0354,2.0349,2.0338,2.0326,2.0316,2.031,2.0299,2.0291,2.0287,2.0288,2.0289,2.029,2.029,2.0286,2.0286,2.028,2.028,2.028,0,0,2.0426,2.0416,2.0412,2.0397,2.0389,2.0381,2.0374,2.0366,2.036,2.0347,2.0337,2.0329,2.0315,2.0306,2.0301,2.0298,2.0291,2.029,2.0291,2.029,2.0286,2.0286,2.0287,2.028,2.028,2.028,0,0,2.0428,2.042,2.0414,2.0406,2.0394,2.0385,2.0384,2.037,2.0364,2.0354,2.0344,2.0337,2.032,2.0311,2.0304,2.0304,2.0297,2.0301,2.0305,2.0301,2.0302,2.0302,2.0303,2.0303,2.03,2.03,2.03,0,2.0433,2.0422,2.0412,2.0405,2.0399,2.0388,2.0382,2.0375,2.0359,2.0355,2.0353,2.0332,2.0322,2.0311,2.0311,2.0306,2.0304,2.0302,2.0303,2.0303,2.0303,2.0304,2.0304,2.0301,2.0301,2.0301,2.0301,0,2.0429,2.0421,2.0418,2.0405,2.0399,2.0392,2.0381,2.0375,2.0369,2.0361,2.0351,2.0339,2.0327,2.0323,2.0316,2.0312,2.0311,2.0306,2.0301,2.0305,2.0305,2.0305,2.0302,2.0302,2.0301,2.0301,0,0,2.0436,2.0419,2.0418,2.0412,2.0398,2.0392,2.0385,2.0375,2.037,2.036,2.0354,2.0341,2.0337,2.0329,2.0321,2.0318,2.0319,2.0313,2.0313,2.0315,2.0315,2.0319,2.0319,2.0315,2.0315,2.0315,2.0316,0,2.0436,2.0424,2.0415,2.0407,2.04,2.0391,2.0385,2.0376,2.0368,2.0361,2.0352,2.0343,2.0338,2.0334,2.033,2.032,2.0319,2.032,2.0309,2.0309,2.0313,2.0319,2.0323,2.0325,2.0316,2.0316,2.0316,0,2.0434,2.0426,2.0417,2.0406,2.0402,2.0397,2.0388,2.0381,2.037,2.0365,2.0358,2.035,2.0342,2.0338,2.0328,2.0328,2.0324,2.0318,2.0318,2.0317,2.0313,2.0318,2.0325,2.0326,2.0316,2.0316,2.0316,0,2.0441,2.0427,2.0421,2.0416,2.0402,2.0399,2.0393,2.0383,2.0377,2.0368,2.0365,2.0355,2.0349,2.0341,2.0331,2.0329,2.0322,2.0317,2.0317,2.0318,2.0316,2.0316,2.0323,2.0312,2.0312,2.0312,2.0312,0,2.0441,2.0437,2.0424,2.042,2.0415,2.0405,2.0399,2.0392,2.0383,2.0378,2.0368,2.0363,2.035,2.0343,2.0334,2.0328,2.0325,2.032,2.0318,2.0321,2.0322,2.0318,2.0318,2.0312,2.0312,2.0312,2.0312,0,2.0448,2.0439,2.0432,2.042,2.0417,2.0413,2.0403,2.0398,2.0391,2.0384,2.0382,2.0369,2.0361,2.035,2.0338,2.0332,2.0326,2.0323,2.033,2.0329,2.0331,2.0331,2.0335,2.0335,2.0324,2.0324,2.0325,0,2.0449,2.0445,2.0434,2.043,2.0425,2.0418,2.0413,2.0403,2.0398,2.0387,2.0384,2.0375,2.0368,2.0355,2.0344,2.0335,2.0332,2.0334,2.033,2.0334,2.0333,2.0333,2.0333,2.0335,2.0335,2.0335,2.0335,0,2.0452,2.0449,2.0442,2.0435,2.0429,2.0423,2.0415,2.0412,2.0401,2.0396,2.0388,2.0382,2.0371,2.0362,2.0352,2.0345,2.0338,2.0337,2.0336,2.034,2.0344,2.0343,2.0333,2.0336,2.0336,2.0336,2.0336,2.0336,2.0457,2.0453,2.0445,2.0439,2.0433,2.0426,2.0422,2.0415,2.0409,2.0399,2.0394,2.0386,2.0377,2.0363,2.0356,2.035,2.0347,2.0347,2.0347,2.0347,2.0348,2.0346,2.0348,2.0348,2.0348,2.0348,2.0348,0,2.046,2.0455,2.0449,2.044,2.0435,2.043,2.0422,2.0418,2.0412,2.0405,2.0398,2.0389,2.0382,2.0371,2.0363,2.036,2.0357,2.0358,2.0358,2.0357,2.0351,2.0352,2.0361,2.0361,2.0361,2.0361,2.0361,2.0361,2.0461,2.0456,2.0452,2.0444,2.0438,2.0432,2.0428,2.0422,2.0416,2.0407,2.0401,2.0395,2.0387,2.0378,2.0371,2.0368,2.0365,2.0368,2.0364,2.0358,2.0357,2.0356,2.0357,2.0367,2.0367,2.0371,2.0371,2.0371]}]]